Location: Austin
(30.3000°N, 97.7500°W)
Time: 08:00:55
(UTC-06:00)

PAYLOAD B - Pass Details

Date: 12 February 2024
Orbit: 847 x 871 km, 99.1° (Epoch: 29 February)

Event Time Altitude Azimuth Distance (km) Brightness Sun altitude
Rises 19:27:07 0° 149° (SSE) 3,432 7.1 -15.7°
Reaches altitude 10° 19:29:36 10° 143° (SE) 2,495 6.4 -16.3°
Maximum altitude 19:34:49 44° 72° (ENE) 1,168 4.5 -17.4°
Drops below altitude 10° 19:40:02 10° 2° (N) 2,492 6.6 -18.5°
Sets 19:42:30 0° 356° (N) 3,427 7.4 -19.0°
